Volver al catálogo

IRIDIUM 169

ActivoComunicacionesPO
NORAD 43926·PAYLOAD·🇺🇸 United States

Lanzado Jan 11, 2019 desde Vandenberg Space Force Base

Loading…

Próximos Pases (próximas 24 horas)

TLE

ActualizadoSource: CelesTrak SupGP

Época: Sep 14, 2026, 22:26 UTC

1 43926C 19002E   26257.93506944 -.00001027  00000+0 -33618-3 0  2570
2 43926  86.4282 347.6911 0002376  86.9019  44.9127 14.38611618    15

Sigue IRIDIUM 169 en tiempo real con AllMySat

Download on the App Store